#timestamp,LO_Frequency,Hit,StdDev 
1588608015.3,286047000.9,N
1588608035.2,286047000.2,N
1588608055.0,286047001.9,N
1588608055.9,286047001.9,N
1588608075.8,286047004.4,Y
1588608095.6,286047002.0,P
1588608115.4,286046998.1,N
1588608135.3,286046999.5,N
1588608155.1,286046999.8,N
1588608175.9,286047000.7,N
1588608195.7,286046998.5,N
1588608215.5,286047002.5,N
1588608235.4,286047001.3,N
1588608255.2,286047000.3,N
1588608275.1,286047001.1,N
1588608276.0,286047001.1,N
1588608295.8,286047001.2,N
1588608315.6,286047000.4,N
1588608335.5,286047002.7,N
1588608355.3,286047002.2,N
1588608375.1,286047000.2,N
1588608395.9,286047002.8,N
1588608415.7,286047004.3,Y
1588608435.6,286047004.4,P
1588608455.4,286047003.2,N
1588608475.2,286047005.2,P
1588608495.1,286047004.5,N
1588608496.0,286047004.5,N
1588608515.8,286047007.0,Y
1588608535.7,286047000.2,P
1588608555.5,286046998.4,N
1588608575.3,286046996.5,N
1588608595.2,286046996.7,N
1588608615.0,286046997.2,N
1588608615.9,286046997.2,N
1588608635.8,286046996.7,N
1588608655.6,286046995.2,N
1588608675.4,286046994.9,N
1588608695.3,286046999.2,N
1588608715.1,286047000.7,N
1588608735.8,286046999.3,N
1588608755.7,286047000.7,N
1588608775.5,286046999.7,N
1588608795.4,286046998.2,N
1588608815.2,286047001.0,N
1588608835.0,286046999.9,N
1588608835.9,286046999.9,N
1588608855.8,286047001.2,N
1588608875.6,286046997.6,N
1588608895.4,286046996.6,N
1588608915.3,286046997.1,N
1588608935.1,286046997.2,N
1588608955.9,286046996.8,N
1588608975.7,286046996.6,N
1588608995.5,286046998.8,N
1588609015.4,286046998.1,N
1588609035.2,286046998.3,N
1588609055.0,286047000.6,N
1588609056.0,286047000.6,N
1588609075.8,286046998.4,N
1588609095.6,286046998.3,N
1588609115.5,286047000.8,N
1588609135.3,286046998.5,N
1588609155.1,286047001.2,N
1588609175.9,286046998.6,N
1588609195.7,286047000.0,N
1588609215.6,286047000.2,N
1588609235.4,286047000.9,N
1588609255.2,286047000.6,N
1588609275.1,286047000.4,N
1588609276.0,286047000.4,N
1588609295.8,286046997.1,N
1588609315.6,286046996.7,N
1588609335.5,286046999.1,N
1588609355.3,286046997.3,N
1588609375.2,286046997.7,N
1588609395.9,286046998.1,N
1588609415.7,286046998.4,N
1588609435.6,286047002.4,N
1588609455.4,286047000.2,N
1588609505.3,286046999.7,E
1588609515.2,286047000.6,N
1588609535.0,286046998.5,P
1588609535.9,286046998.5,N
1588609555.8,286046996.9,Y
1588609575.6,286046998.5,P
1588609595.5,286047002.0,P
1588609615.3,286047003.5,N
1588609635.1,286046999.7,N
1588609655.9,286047000.7,N
1588609675.7,286047000.7,N
1588609695.5,286046998.5,N
1588609715.4,286046999.7,N
1588609735.2,286047000.8,N
1588609755.1,286047001.7,N
1588609756.0,286047001.7,N
1588609775.8,286047004.2,N
1588609795.6,286047004.0,N
1588609815.5,286047003.7,N
1588609835.3,286047002.5,N
1588609855.2,286047002.2,N
1588609875.9,286047001.4,N
1588609895.7,286047002.5,N
1588609915.6,286047001.8,N
1588609935.4,286047001.7,N
1588609955.3,286047001.4,N
1588609975.1,286047004.3,N
1588609976.0,286047004.3,N
1588609995.8,286047003.6,N
1588610015.7,286047003.6,N
1588610035.5,286047001.5,N
1588610055.3,286047002.5,N
1588610075.2,286047000.7,N
1588610095.0,286046998.6,N
1588610095.9,286046998.6,N
1588610115.8,286047000.1,N
1588610135.6,286047001.1,N
1588610155.4,286047000.0,N
1588610175.3,286047002.5,N
1588610195.1,286047000.3,N
1588610215.9,286047000.4,N
1588610235.7,286047000.9,N
1588610255.5,286046998.3,N
1588610275.4,286046999.2,N
1588610295.2,286046996.5,N
1588610315.0,286046997.0,N
1588610315.9,286046997.0,N
1588610335.8,286046997.6,N
1588610355.6,286046997.5,N
1588610375.5,286046995.4,N
1588610395.3,286046995.0,N
1588610415.1,286046998.0,N
1588610435.9,286046995.0,N
1588610455.7,286046997.9,N
1588610475.6,286046995.8,N
1588610495.4,286046998.0,N
1588610515.2,286046997.3,N
1588610535.1,286046995.2,N
1588610536.0,286046995.2,N
1588610555.8,286046996.3,N
1588610575.7,286046996.3,N
1588610595.5,286046995.6,N
1588610615.3,286046996.1,N
1588610635.2,286046993.7,Y
1588610655.0,286046995.5,P
1588610655.9,286046995.5,P
1588610675.8,286046998.0,N
1588610695.6,286046997.9,N
1588610715.4,286046997.6,N
1588610735.3,286046994.9,Y
1588610755.1,286046998.8,P
1588610775.8,286046999.6,N
1588610795.7,286046998.9,N
1588610815.5,286046998.7,N
1588610835.4,286046998.8,N
1588610855.2,286046997.3,Y
1588610875.0,286046997.6,P
1588610875.9,286046997.6,P
1588610895.8,286046997.2,P
1588610915.6,286046997.9,Y
1588610935.5,286047000.6,P
1588610955.3,286047000.5,N
1588610975.1,286047000.0,N
1588610995.9,286046998.4,N
1588611015.7,286046998.2,N
1588611035.6,286047000.6,N
1588611055.4,286046996.6,N
1588611075.2,286046998.6,N
1588611095.1,286046998.4,N
1588611096.0,286046998.4,N
1588611115.8,286047000.6,N
1588611135.7,286047002.7,N
1588611155.5,286047000.8,N
1588611175.3,286046998.2,N
1588611195.2,286047001.9,N
1588611215.0,286047001.5,N
1588611215.9,286047001.5,N
1588611235.7,286047004.2,N
1588611255.6,286047004.8,N
1588611275.4,286047007.0,Y
1588611295.3,286047005.5,P
1588611315.1,286047003.1,N
1588611335.8,286047003.0,N
1588611355.7,286047005.0,N
1588611375.5,286047007.5,Y
1588611395.4,286047003.7,P
1588611415.2,286047003.5,P
1588611435.0,286047001.4,P
1588611435.9,286047001.4,N
1588611455.8,286047002.1,N
1588611475.6,286047001.3,N
1588611495.5,286047004.3,Y
1588611515.3,286046999.1,P
1588611535.1,286046998.8,N
1588611555.9,286046999.6,N
1588611575.7,286046999.0,N
1588611595.5,286047000.6,N
